1600639235,2020-09-21 00:00,429.00,-28
1600639295,2020-09-21 00:01,432.00,-29
1600639356,2020-09-21 00:02,430.00,-28
1600639416,2020-09-21 00:03,430.00,-29
1600639476,2020-09-21 00:04,433.00,-28
1600639536,2020-09-21 00:05,431.00,-29
1600639599,2020-09-21 00:06,430.00,-28
1600639659,2020-09-21 00:07,430.00,-28
1600639719,2020-09-21 00:08,433.00,-29
1600639779,2020-09-21 00:09,433.00,-29
1600639839,2020-09-21 00:10,428.00,-28
1600639899,2020-09-21 00:11,431.00,-29
1600639959,2020-09-21 00:12,428.00,-28
1600640019,2020-09-21 00:13,429.00,-28
1600640079,2020-09-21 00:14,432.00,-30
1600640139,2020-09-21 00:15,433.00,-29
1600640199,2020-09-21 00:16,432.00,-29
1600640260,2020-09-21 00:17,432.00,-29
1600640320,2020-09-21 00:18,434.00,-28
1600640380,2020-09-21 00:19,434.00,-28
1600640440,2020-09-21 00:20,433.00,-29
1600640500,2020-09-21 00:21,432.00,-28
1600640560,2020-09-21 00:22,433.00,-29
1600640620,2020-09-21 00:23,431.00,-28
1600640680,2020-09-21 00:24,433.00,-29
1600640740,2020-09-21 00:25,431.00,-30
1600640800,2020-09-21 00:26,434.00,-27
1600640860,2020-09-21 00:27,434.00,-28
1600640921,2020-09-21 00:28,436.00,-30
1600640981,2020-09-21 00:29,436.00,-28
1600641041,2020-09-21 00:30,432.00,-27
1600641104,2020-09-21 00:31,433.00,-29
1600641164,2020-09-21 00:32,433.00,-28
1600641224,2020-09-21 00:33,436.00,-28
1600641284,2020-09-21 00:34,437.00,-28
1600641344,2020-09-21 00:35,438.00,-32
1600641404,2020-09-21 00:36,439.00,-28
1600641464,2020-09-21 00:37,439.00,-28
1600641524,2020-09-21 00:38,440.00,-28
1600641584,2020-09-21 00:39,439.00,-30
1600641644,2020-09-21 00:40,438.00,-27
1600641704,2020-09-21 00:41,437.00,-29
1600641764,2020-09-21 00:42,436.00,-27
1600641825,2020-09-21 00:43,436.00,-27
1600641885,2020-09-21 00:44,437.00,-27
1600641945,2020-09-21 00:45,438.00,-27
1600642005,2020-09-21 00:46,438.00,-27
1600642065,2020-09-21 00:47,437.00,-27
1600642125,2020-09-21 00:48,436.00,-27
1600642185,2020-09-21 00:49,437.00,-27
1600642245,2020-09-21 00:50,436.00,-28
1600642305,2020-09-21 00:51,441.00,-27
1600642365,2020-09-21 00:52,438.00,-28
1600642425,2020-09-21 00:53,442.00,-28
1600642485,2020-09-21 00:54,439.00,-27
1600642546,2020-09-21 00:55,441.00,-27
1600642606,2020-09-21 00:56,440.00,-27
1600642666,2020-09-21 00:57,436.00,-27
1600642726,2020-09-21 00:58,435.00,-27
1600642786,2020-09-21 00:59,433.00,-27
1600642846,2020-09-21 01:00,435.00,-29
1600642906,2020-09-21 01:01,432.00,-27
1600642966,2020-09-21 01:02,437.00,-27
1600643026,2020-09-21 01:03,435.00,-27
1600643086,2020-09-21 01:04,438.00,-29
1600643146,2020-09-21 01:05,442.00,-29
1600643206,2020-09-21 01:06,439.00,-28
1600643266,2020-09-21 01:07,438.00,-28
1600643326,2020-09-21 01:08,439.00,-27
1600643386,2020-09-21 01:09,434.00,-27
1600643446,2020-09-21 01:10,436.00,-28
1600643506,2020-09-21 01:11,432.00,-27
1600643567,2020-09-21 01:12,434.00,-27
1600643627,2020-09-21 01:13,436.00,-27
1600643687,2020-09-21 01:14,435.00,-28
1600643747,2020-09-21 01:15,434.00,-27
1600643807,2020-09-21 01:16,435.00,-27
1600643867,2020-09-21 01:17,433.00,-27
1600643927,2020-09-21 01:18,434.00,-28
1600643987,2020-09-21 01:19,437.00,-28
1600644047,2020-09-21 01:20,435.00,-27
1600644107,2020-09-21 01:21,436.00,-27
1600644167,2020-09-21 01:22,437.00,-27
1600644227,2020-09-21 01:23,436.00,-27
1600644287,2020-09-21 01:24,437.00,-27
1600644347,2020-09-21 01:25,436.00,-27
1600644407,2020-09-21 01:26,431.00,-28
1600644468,2020-09-21 01:27,436.00,-27
1600644528,2020-09-21 01:28,437.00,-28
1600644588,2020-09-21 01:29,427.00,-28
1600644648,2020-09-21 01:30,429.00,-27
1600644708,2020-09-21 01:31,429.00,-28
1600644768,2020-09-21 01:32,428.00,-29
1600644828,2020-09-21 01:33,428.00,-27
1600644888,2020-09-21 01:34,425.00,-27
1600644948,2020-09-21 01:35,424.00,-29
1600645008,2020-09-21 01:36,421.00,-29
1600645068,2020-09-21 01:37,423.00,-27
1600645128,2020-09-21 01:38,422.00,-27
1600645188,2020-09-21 01:39,426.00,-27
1600645248,2020-09-21 01:40,426.00,-29
1600645308,2020-09-21 01:41,426.00,-27
1600645368,2020-09-21 01:42,424.00,-28
1600645428,2020-09-21 01:43,424.00,-30
1600645488,2020-09-21 01:44,425.00,-27
1600645549,2020-09-21 01:45,422.00,-28
1600645609,2020-09-21 01:46,424.00,-28
1600645669,2020-09-21 01:47,423.00,-28
1600645729,2020-09-21 01:48,421.00,-27
1600645789,2020-09-21 01:49,426.00,-28
1600645849,2020-09-21 01:50,425.00,-27
1600645909,2020-09-21 01:51,426.00,-27
1600645969,2020-09-21 01:52,426.00,-27
1600646029,2020-09-21 01:53,428.00,-27
1600646089,2020-09-21 01:54,425.00,-27
1600646149,2020-09-21 01:55,425.00,-28
1600646210,2020-09-21 01:56,423.00,-33
1600646270,2020-09-21 01:57,424.00,-31
1600646330,2020-09-21 01:58,425.00,-27
1600646390,2020-09-21 01:59,425.00,-27
1600646450,2020-09-21 02:00,424.00,-27
1600646510,2020-09-21 02:01,424.00,-27
1600646570,2020-09-21 02:02,425.00,-28
1600646630,2020-09-21 02:03,423.00,-27
1600646690,2020-09-21 02:04,423.00,-28
1600646750,2020-09-21 02:05,423.00,-27
1600646810,2020-09-21 02:06,425.00,-28
1600646870,2020-09-21 02:07,426.00,-27
1600646930,2020-09-21 02:08,425.00,-27
1600646990,2020-09-21 02:09,424.00,-27
1600647050,2020-09-21 02:10,425.00,-26
1600647110,2020-09-21 02:11,425.00,-27
1600647171,2020-09-21 02:12,423.00,-28
1600647231,2020-09-21 02:13,428.00,-27
1600647291,2020-09-21 02:14,430.00,-27
1600647351,2020-09-21 02:15,428.00,-27
1600647411,2020-09-21 02:16,427.00,-27
1600647471,2020-09-21 02:17,426.00,-27
1600647531,2020-09-21 02:18,427.00,-28
1600647591,2020-09-21 02:19,429.00,-28
1600647651,2020-09-21 02:20,430.00,-27
1600647711,2020-09-21 02:21,431.00,-33
1600647771,2020-09-21 02:22,426.00,-35
1600647831,2020-09-21 02:23,430.00,-35
1600647891,2020-09-21 02:24,427.00,-28
1600647951,2020-09-21 02:25,425.00,-28
1600648012,2020-09-21 02:26,426.00,-27
1600648072,2020-09-21 02:27,427.00,-28
1600648132,2020-09-21 02:28,432.00,-27
1600648192,2020-09-21 02:29,432.00,-27
1600648252,2020-09-21 02:30,427.00,-27
1600648312,2020-09-21 02:31,427.00,-27
1600648372,2020-09-21 02:32,429.00,-28
1600648432,2020-09-21 02:33,432.00,-27
1600648492,2020-09-21 02:34,431.00,-27
1600648552,2020-09-21 02:35,428.00,-27
1600648612,2020-09-21 02:36,426.00,-27
1600648672,2020-09-21 02:37,428.00,-27
1600648732,2020-09-21 02:38,428.00,-27
1600648792,2020-09-21 02:39,429.00,-28
1600648852,2020-09-21 02:40,431.00,-28
1600648913,2020-09-21 02:41,429.00,-30
1600648973,2020-09-21 02:42,431.00,-28
1600649033,2020-09-21 02:43,430.00,-27
1600649093,2020-09-21 02:44,431.00,-27
1600649153,2020-09-21 02:45,429.00,-28
1600649213,2020-09-21 02:46,431.00,-27
1600649273,2020-09-21 02:47,430.00,-29
1600649333,2020-09-21 02:48,428.00,-27
1600649393,2020-09-21 02:49,427.00,-29
1600649453,2020-09-21 02:50,428.00,-27
1600649513,2020-09-21 02:51,428.00,-27
1600649573,2020-09-21 02:52,429.00,-27
1600649633,2020-09-21 02:53,431.00,-28
1600649693,2020-09-21 02:54,431.00,-27
1600649753,2020-09-21 02:55,429.00,-30
1600649813,2020-09-21 02:56,427.00,-28
1600649873,2020-09-21 02:57,429.00,-27
1600649933,2020-09-21 02:58,428.00,-27
1600649993,2020-09-21 02:59,428.00,-27
1600650053,2020-09-21 03:00,428.00,-29
1600650113,2020-09-21 03:01,424.00,-27
1600650173,2020-09-21 03:02,426.00,-27
1600650233,2020-09-21 03:03,428.00,-28
1600650293,2020-09-21 03:04,427.00,-27
1600650353,2020-09-21 03:05,429.00,-27
1600650414,2020-09-21 03:06,425.00,-27
1600650474,2020-09-21 03:07,425.00,-27
1600650534,2020-09-21 03:08,426.00,-27
1600650594,2020-09-21 03:09,426.00,-27
1600650654,2020-09-21 03:10,425.00,-28
1600650714,2020-09-21 03:11,427.00,-27
1600650774,2020-09-21 03:12,425.00,-28
1600650834,2020-09-21 03:13,428.00,-28
1600650894,2020-09-21 03:14,427.00,-28
1600650954,2020-09-21 03:15,424.00,-28
1600651014,2020-09-21 03:16,425.00,-27
1600651074,2020-09-21 03:17,424.00,-28
1600651134,2020-09-21 03:18,424.00,-30
1600651194,2020-09-21 03:19,426.00,-30
1600651254,2020-09-21 03:20,425.00,-29
1600651314,2020-09-21 03:21,427.00,-28
1600651374,2020-09-21 03:22,431.00,-27
1600651434,2020-09-21 03:23,430.00,-27
1600651494,2020-09-21 03:24,428.00,-27
1600651554,2020-09-21 03:25,430.00,-27
1600651614,2020-09-21 03:26,429.00,-27
1600651674,2020-09-21 03:27,427.00,-27
1600651734,2020-09-21 03:28,432.00,-28
1600651794,2020-09-21 03:29,427.00,-30
1600651855,2020-09-21 03:30,429.00,-30
1600651915,2020-09-21 03:31,436.00,-30
1600651975,2020-09-21 03:32,439.00,-30
1600652035,2020-09-21 03:33,434.00,-29
1600652095,2020-09-21 03:34,432.00,-31
1600652155,2020-09-21 03:35,432.00,-30
1600652215,2020-09-21 03:36,433.00,-29
1600652275,2020-09-21 03:37,431.00,-30
1600652335,2020-09-21 03:38,430.00,-31
1600652395,2020-09-21 03:39,427.00,-30
1600652455,2020-09-21 03:40,428.00,-31
1600652515,2020-09-21 03:41,429.00,-30
1600652575,2020-09-21 03:42,431.00,-31
1600652635,2020-09-21 03:43,430.00,-29
1600652695,2020-09-21 03:44,429.00,-29
1600652755,2020-09-21 03:45,431.00,-30
1600652815,2020-09-21 03:46,431.00,-29
1600652875,2020-09-21 03:47,429.00,-29
1600652935,2020-09-21 03:48,434.00,-30
1600652995,2020-09-21 03:49,431.00,-31
1600653055,2020-09-21 03:50,434.00,-30
1600653115,2020-09-21 03:51,433.00,-29
1600653175,2020-09-21 03:52,434.00,-30
1600653236,2020-09-21 03:53,429.00,-32
1600653296,2020-09-21 03:54,432.00,-29
1600653359,2020-09-21 03:55,435.00,-29
1600653419,2020-09-21 03:56,435.00,-32
1600653542,2020-09-21 03:59,433.00,-29
1600653602,2020-09-21 04:00,431.00,-29
1600653662,2020-09-21 04:01,430.00,-27
1600653722,2020-09-21 04:02,434.00,-29
1600653782,2020-09-21 04:03,434.00,-29
1600653842,2020-09-21 04:04,431.00,-29
1600653902,2020-09-21 04:05,433.00,-28
1600653962,2020-09-21 04:06,430.00,-29
1600654022,2020-09-21 04:07,432.00,-28
1600654082,2020-09-21 04:08,433.00,-29
1600654142,2020-09-21 04:09,433.00,-28
1600654202,2020-09-21 04:10,430.00,-29
1600654262,2020-09-21 04:11,429.00,-28
1600654323,2020-09-21 04:12,431.00,-31
1600654383,2020-09-21 04:13,428.00,-28
1600654443,2020-09-21 04:14,428.00,-29
1600654503,2020-09-21 04:15,427.00,-28
1600654563,2020-09-21 04:16,428.00,-30
1600654623,2020-09-21 04:17,428.00,-31
1600654683,2020-09-21 04:18,431.00,-30
1600654743,2020-09-21 04:19,430.00,-30
1600654803,2020-09-21 04:20,430.00,-28
1600654863,2020-09-21 04:21,432.00,-29
1600654923,2020-09-21 04:22,436.00,-29
1600654983,2020-09-21 04:23,432.00,-29
1600655043,2020-09-21 04:24,430.00,-28
1600655103,2020-09-21 04:25,430.00,-28
1600655164,2020-09-21 04:26,430.00,-28
1600655224,2020-09-21 04:27,432.00,-30
1600655284,2020-09-21 04:28,429.00,-28
1600655344,2020-09-21 04:29,428.00,-28
1600655404,2020-09-21 04:30,430.00,-29
1600655464,2020-09-21 04:31,432.00,-29
1600655524,2020-09-21 04:32,438.00,-29
1600655584,2020-09-21 04:33,433.00,-28
1600655644,2020-09-21 04:34,432.00,-29
1600655704,2020-09-21 04:35,435.00,-28
1600655764,2020-09-21 04:36,437.00,-28
1600655824,2020-09-21 04:37,436.00,-28
1600655884,2020-09-21 04:38,436.00,-29
1600655944,2020-09-21 04:39,433.00,-28
1600656004,2020-09-21 04:40,430.00,-29
1600656064,2020-09-21 04:41,430.00,-28
1600656124,2020-09-21 04:42,433.00,-28
1600656184,2020-09-21 04:43,432.00,-28
1600656244,2020-09-21 04:44,433.00,-28
1600656305,2020-09-21 04:45,435.00,-30
1600656365,2020-09-21 04:46,434.00,-28
1600656425,2020-09-21 04:47,434.00,-28
1600656485,2020-09-21 04:48,435.00,-28
1600656545,2020-09-21 04:49,438.00,-29
1600656605,2020-09-21 04:50,437.00,-28
1600656665,2020-09-21 04:51,436.00,-28
1600656725,2020-09-21 04:52,444.00,-29
1600656785,2020-09-21 04:53,441.00,-30
1600656845,2020-09-21 04:54,437.00,-29
1600656905,2020-09-21 04:55,437.00,-31
1600656965,2020-09-21 04:56,434.00,-29
1600657025,2020-09-21 04:57,432.00,-28
1600657085,2020-09-21 04:58,431.00,-30
1600657145,2020-09-21 04:59,433.00,-28
1600657205,2020-09-21 05:00,433.00,-30
1600657265,2020-09-21 05:01,439.00,-30
1600657326,2020-09-21 05:02,440.00,-29
1600657386,2020-09-21 05:03,443.00,-28
1600657446,2020-09-21 05:04,438.00,-28
1600657506,2020-09-21 05:05,442.00,-28
1600657566,2020-09-21 05:06,442.00,-28
1600657626,2020-09-21 05:07,442.00,-30
1600657686,2020-09-21 05:08,445.00,-28
1600657746,2020-09-21 05:09,444.00,-27
1600657806,2020-09-21 05:10,443.00,-29
1600657866,2020-09-21 05:11,446.00,-31
1600657926,2020-09-21 05:12,443.00,-28
1600657986,2020-09-21 05:13,446.00,-27
1600658046,2020-09-21 05:14,447.00,-31
1600658106,2020-09-21 05:15,450.00,-31
1600658166,2020-09-21 05:16,450.00,-28
1600658226,2020-09-21 05:17,450.00,-28
1600658286,2020-09-21 05:18,451.00,-28
1600658346,2020-09-21 05:19,451.00,-28
1600658406,2020-09-21 05:20,451.00,-29
1600658466,2020-09-21 05:21,450.00,-29
1600658526,2020-09-21 05:22,451.00,-28
1600658587,2020-09-21 05:23,454.00,-28
1600658647,2020-09-21 05:24,451.00,-28
1600658707,2020-09-21 05:25,452.00,-28
1600658767,2020-09-21 05:26,452.00,-28
1600658827,2020-09-21 05:27,454.00,-30
1600658887,2020-09-21 05:28,454.00,-29
1600658947,2020-09-21 05:29,456.00,-29
1600659007,2020-09-21 05:30,454.00,-29
1600659067,2020-09-21 05:31,456.00,-29
1600659127,2020-09-21 05:32,459.00,-29
1600659187,2020-09-21 05:33,460.00,-28
1600659247,2020-09-21 05:34,459.00,-29
1600659307,2020-09-21 05:35,459.00,-31
1600659367,2020-09-21 05:36,459.00,-28
1600659427,2020-09-21 05:37,462.00,-32
1600659488,2020-09-21 05:38,458.00,-29
1600659548,2020-09-21 05:39,457.00,-29
1600659608,2020-09-21 05:40,456.00,-30
1600659668,2020-09-21 05:41,458.00,-28
1600659728,2020-09-21 05:42,459.00,-27
1600659788,2020-09-21 05:43,462.00,-27
1600659848,2020-09-21 05:44,462.00,-28
1600659908,2020-09-21 05:45,463.00,-27
1600659968,2020-09-21 05:46,453.00,-27
1600660028,2020-09-21 05:47,455.00,-27
1600660088,2020-09-21 05:48,457.00,-27
1600660149,2020-09-21 05:49,454.00,-29
1600660209,2020-09-21 05:50,456.00,-27
1600660269,2020-09-21 05:51,459.00,-29
1600660329,2020-09-21 05:52,461.00,-27
1600660389,2020-09-21 05:53,464.00,-28
1600660449,2020-09-21 05:54,463.00,-28
1600660509,2020-09-21 05:55,465.00,-29
1600660569,2020-09-21 05:56,465.00,-28
1600660629,2020-09-21 05:57,462.00,-28
1600660689,2020-09-21 05:58,468.00,-28
1600660749,2020-09-21 05:59,466.00,-27
1600660809,2020-09-21 06:00,464.00,-27
1600660869,2020-09-21 06:01,463.00,-27
1600660929,2020-09-21 06:02,464.00,-27
1600660989,2020-09-21 06:03,466.00,-28
1600661049,2020-09-21 06:04,467.00,-28
1600661109,2020-09-21 06:05,467.00,-27
1600661170,2020-09-21 06:06,462.00,-27
1600661230,2020-09-21 06:07,464.00,-28
1600661290,2020-09-21 06:08,467.00,-28
1600661350,2020-09-21 06:09,470.00,-30
1600661410,2020-09-21 06:10,468.00,-28
1600661470,2020-09-21 06:11,468.00,-29
1600661530,2020-09-21 06:12,460.00,-27
1600661590,2020-09-21 06:13,454.00,-29
1600661650,2020-09-21 06:14,455.00,-27
1600661710,2020-09-21 06:15,456.00,-27
1600661770,2020-09-21 06:16,452.00,-29
1600661830,2020-09-21 06:17,452.00,-29
1600661890,2020-09-21 06:18,442.00,-27
1600661950,2020-09-21 06:19,439.00,-27
1600662010,2020-09-21 06:20,437.00,-27
1600662070,2020-09-21 06:21,439.00,-27
1600662130,2020-09-21 06:22,443.00,-27
1600662190,2020-09-21 06:23,444.00,-27
1600662250,2020-09-21 06:24,440.00,-27
1600662311,2020-09-21 06:25,438.00,-27
1600662371,2020-09-21 06:26,440.00,-27
1600662431,2020-09-21 06:27,437.00,-27
1600662491,2020-09-21 06:28,437.00,-31
1600662551,2020-09-21 06:29,436.00,-30
1600662611,2020-09-21 06:30,437.00,-31
1600662671,2020-09-21 06:31,439.00,-28
1600662731,2020-09-21 06:32,438.00,-29
1600662791,2020-09-21 06:33,439.00,-30
1600662851,2020-09-21 06:34,438.00,-32
1600662911,2020-09-21 06:35,435.00,-29
1600662971,2020-09-21 06:36,440.00,-27
1600663031,2020-09-21 06:37,434.00,-28
1600663091,2020-09-21 06:38,435.00,-28
1600663151,2020-09-21 06:39,433.00,-29
1600663211,2020-09-21 06:40,434.00,-27
1600663272,2020-09-21 06:41,433.00,-28
1600663332,2020-09-21 06:42,431.00,-27
1600663392,2020-09-21 06:43,430.00,-28
1600663452,2020-09-21 06:44,432.00,-28
1600663512,2020-09-21 06:45,437.00,-28
1600663572,2020-09-21 06:46,437.00,-29
1600663632,2020-09-21 06:47,436.00,-27
1600663692,2020-09-21 06:48,438.00,-27
1600663752,2020-09-21 06:49,437.00,-29
1600663812,2020-09-21 06:50,432.00,-28
1600663872,2020-09-21 06:51,430.00,-28
1600663932,2020-09-21 06:52,426.00,-27
1600663993,2020-09-21 06:53,430.00,-28
1600664053,2020-09-21 06:54,430.00,-28
1600664113,2020-09-21 06:55,430.00,-29
1600664173,2020-09-21 06:56,430.00,-27
1600664233,2020-09-21 06:57,430.00,-30
1600664293,2020-09-21 06:58,429.00,-30
1600664353,2020-09-21 06:59,430.00,-28
1600664413,2020-09-21 07:00,428.00,-27
1600664473,2020-09-21 07:01,431.00,-29
1600664533,2020-09-21 07:02,426.00,-28
1600664593,2020-09-21 07:03,427.00,-31
1600664653,2020-09-21 07:04,426.00,-28
1600664713,2020-09-21 07:05,427.00,-28
1600664774,2020-09-21 07:06,426.00,-28
1600664834,2020-09-21 07:07,425.00,-29
1600664894,2020-09-21 07:08,426.00,-31
1600664954,2020-09-21 07:09,426.00,-28
1600665014,2020-09-21 07:10,427.00,-30
1600665074,2020-09-21 07:11,427.00,-28
1600665134,2020-09-21 07:12,427.00,-28
1600665194,2020-09-21 07:13,427.00,-29
1600665255,2020-09-21 07:14,426.00,-28
1600665315,2020-09-21 07:15,427.00,-29
1600665375,2020-09-21 07:16,425.00,-30
1600665435,2020-09-21 07:17,428.00,-28
1600665495,2020-09-21 07:18,427.00,-27
1600665555,2020-09-21 07:19,427.00,-28
1600665615,2020-09-21 07:20,431.00,-31
1600665675,2020-09-21 07:21,429.00,-28
1600665735,2020-09-21 07:22,426.00,-29
1600665795,2020-09-21 07:23,429.00,-27
1600665855,2020-09-21 07:24,427.00,-29
1600665915,2020-09-21 07:25,428.00,-28
1600665975,2020-09-21 07:26,425.00,-28
1600666036,2020-09-21 07:27,426.00,-28
1600666096,2020-09-21 07:28,424.00,-28
1600666156,2020-09-21 07:29,425.00,-28
1600666216,2020-09-21 07:30,427.00,-28
1600666276,2020-09-21 07:31,428.00,-29
1600666336,2020-09-21 07:32,425.00,-29
1600666396,2020-09-21 07:33,422.00,-27
1600666456,2020-09-21 07:34,424.00,-36
1600666516,2020-09-21 07:35,424.00,-33
1600666576,2020-09-21 07:36,426.00,-36
1600666636,2020-09-21 07:37,426.00,-29
1600666697,2020-09-21 07:38,423.00,-28
1600666757,2020-09-21 07:39,422.00,-27
1600666817,2020-09-21 07:40,420.00,-28
1600666877,2020-09-21 07:41,422.00,-28
1600666937,2020-09-21 07:42,422.00,-29
1600666997,2020-09-21 07:43,422.00,-28
1600667057,2020-09-21 07:44,424.00,-31
1600667117,2020-09-21 07:45,424.00,-28
1600667177,2020-09-21 07:46,425.00,-29
1600667238,2020-09-21 07:47,425.00,-29
1600667298,2020-09-21 07:48,423.00,-28
1600667358,2020-09-21 07:49,422.00,-28
1600667418,2020-09-21 07:50,422.00,-31
1600667478,2020-09-21 07:51,424.00,-28
1600667538,2020-09-21 07:52,417.00,-29
1600667598,2020-09-21 07:53,417.00,-29
1600667658,2020-09-21 07:54,421.00,-30
1600667718,2020-09-21 07:55,421.00,-28
1600667778,2020-09-21 07:56,422.00,-28
1600667838,2020-09-21 07:57,425.00,-30
1600667898,2020-09-21 07:58,425.00,-27
1600667958,2020-09-21 07:59,425.00,-28
1600668018,2020-09-21 08:00,427.00,-29
1600668078,2020-09-21 08:01,425.00,-29
1600668138,2020-09-21 08:02,424.00,-28
1600668199,2020-09-21 08:03,423.00,-28
1600668259,2020-09-21 08:04,424.00,-28
1600668319,2020-09-21 08:05,423.00,-29
1600668379,2020-09-21 08:06,424.00,-28
1600668439,2020-09-21 08:07,423.00,-28
1600668499,2020-09-21 08:08,423.00,-28
1600668559,2020-09-21 08:09,421.00,-28
1600668619,2020-09-21 08:10,420.00,-27
1600668679,2020-09-21 08:11,420.00,-28
1600668739,2020-09-21 08:12,422.00,-28
1600668799,2020-09-21 08:13,421.00,-30
1600668860,2020-09-21 08:14,422.00,-27
1600668920,2020-09-21 08:15,420.00,-28
1600668980,2020-09-21 08:16,420.00,-28
1600669040,2020-09-21 08:17,420.00,-27
1600669100,2020-09-21 08:18,420.00,-29
1600669160,2020-09-21 08:19,418.00,-27
1600669220,2020-09-21 08:20,414.00,-28
1600669280,2020-09-21 08:21,417.00,-32
1600669340,2020-09-21 08:22,415.00,-28
1600669400,2020-09-21 08:23,416.00,-28
1600669460,2020-09-21 08:24,416.00,-28
1600669521,2020-09-21 08:25,419.00,-29
1600669581,2020-09-21 08:26,418.00,-29
1600669641,2020-09-21 08:27,418.00,-29
1600669701,2020-09-21 08:28,420.00,-29
1600669761,2020-09-21 08:29,419.00,-27
1600669821,2020-09-21 08:30,418.00,-28
1600669882,2020-09-21 08:31,416.00,-29
1600669942,2020-09-21 08:32,416.00,-28
1600670002,2020-09-21 08:33,418.00,-28
1600670062,2020-09-21 08:34,420.00,-28
1600670122,2020-09-21 08:35,415.00,-29
1600670182,2020-09-21 08:36,417.00,-28
1600670242,2020-09-21 08:37,418.00,-28
1600670303,2020-09-21 08:38,415.00,-33
1600670363,2020-09-21 08:39,412.00,-27
1600670424,2020-09-21 08:40,414.00,-28
1600670484,2020-09-21 08:41,415.00,-31
1600670544,2020-09-21 08:42,414.00,-28
1600670604,2020-09-21 08:43,415.00,-28
1600670664,2020-09-21 08:44,412.00,-29
1600670724,2020-09-21 08:45,423.00,-29
1600670784,2020-09-21 08:46,421.00,-28
1600670844,2020-09-21 08:47,424.00,-29
1600670904,2020-09-21 08:48,425.00,-29
1600670965,2020-09-21 08:49,422.00,-27
1600671025,2020-09-21 08:50,423.00,-28
1600671085,2020-09-21 08:51,425.00,-28
1600671145,2020-09-21 08:52,426.00,-27
1600671205,2020-09-21 08:53,427.00,-28
1600671265,2020-09-21 08:54,424.00,-28
1600671325,2020-09-21 08:55,423.00,-28
1600671385,2020-09-21 08:56,424.00,-28
1600671445,2020-09-21 08:57,423.00,-28
1600671505,2020-09-21 08:58,423.00,-28
1600671565,2020-09-21 08:59,424.00,-29
1600671625,2020-09-21 09:00,424.00,-28
1600671685,2020-09-21 09:01,420.00,-28
1600671745,2020-09-21 09:02,424.00,-29
1600671806,2020-09-21 09:03,423.00,-28
1600671866,2020-09-21 09:04,421.00,-30
1600671926,2020-09-21 09:05,424.00,-28
1600671986,2020-09-21 09:06,423.00,-28
1600672046,2020-09-21 09:07,422.00,-28
1600672106,2020-09-21 09:08,425.00,-30
1600672166,2020-09-21 09:09,423.00,-28
1600672226,2020-09-21 09:10,421.00,-29
1600672286,2020-09-21 09:11,421.00,-28
1600672346,2020-09-21 09:12,420.00,-29
1600672406,2020-09-21 09:13,420.00,-30
1600672466,2020-09-21 09:14,419.00,-27
1600672526,2020-09-21 09:15,418.00,-28
1600672586,2020-09-21 09:16,416.00,-29
1600672646,2020-09-21 09:17,417.00,-28
1600672706,2020-09-21 09:18,413.00,-28
1600672767,2020-09-21 09:19,414.00,-27
1600672827,2020-09-21 09:20,411.00,-31
1600672887,2020-09-21 09:21,414.00,-30
1600672947,2020-09-21 09:22,411.00,-28
1600673007,2020-09-21 09:23,413.00,-28
1600673067,2020-09-21 09:24,411.00,-28
1600673127,2020-09-21 09:25,412.00,-28
1600673187,2020-09-21 09:26,411.00,-28
1600673247,2020-09-21 09:27,412.00,-28
1600673307,2020-09-21 09:28,410.00,-28
1600673367,2020-09-21 09:29,411.00,-29
1600673427,2020-09-21 09:30,409.00,-28
1600673487,2020-09-21 09:31,409.00,-28
1600673548,2020-09-21 09:32,406.00,-29
1600673608,2020-09-21 09:33,408.00,-28
1600673668,2020-09-21 09:34,405.00,-28
1600673728,2020-09-21 09:35,408.00,-27
1600673788,2020-09-21 09:36,405.00,-31
1600673848,2020-09-21 09:37,408.00,-28
1600673908,2020-09-21 09:38,410.00,-30
1600673968,2020-09-21 09:39,411.00,-28
1600674028,2020-09-21 09:40,420.00,-30
1600674088,2020-09-21 09:41,420.00,-29
1600674148,2020-09-21 09:42,417.00,-28
1600674208,2020-09-21 09:43,420.00,-29
1600674269,2020-09-21 09:44,416.00,-29
1600674329,2020-09-21 09:45,416.00,-29
1600674389,2020-09-21 09:46,415.00,-27
1600674449,2020-09-21 09:47,414.00,-28
1600674509,2020-09-21 09:48,415.00,-28
1600674569,2020-09-21 09:49,416.00,-28
1600674630,2020-09-21 09:50,417.00,-28
1600674690,2020-09-21 09:51,415.00,-28
1600674750,2020-09-21 09:52,415.00,-29
1600674810,2020-09-21 09:53,414.00,-28
1600674870,2020-09-21 09:54,416.00,-28
1600674930,2020-09-21 09:55,417.00,-27
1600674990,2020-09-21 09:56,416.00,-28
1600675050,2020-09-21 09:57,418.00,-30
1600675110,2020-09-21 09:58,416.00,-29
1600675170,2020-09-21 09:59,417.00,-31
1600675230,2020-09-21 10:00,414.00,-29
1600675290,2020-09-21 10:01,412.00,-28
1600675350,2020-09-21 10:02,414.00,-28
1600675410,2020-09-21 10:03,413.00,-30
1600675470,2020-09-21 10:04,412.00,-28
1600675531,2020-09-21 10:05,410.00,-29
1600675591,2020-09-21 10:06,411.00,-28
1600675651,2020-09-21 10:07,411.00,-28
1600675711,2020-09-21 10:08,409.00,-29
1600675771,2020-09-21 10:09,408.00,-30
1600675831,2020-09-21 10:10,411.00,-28
1600675891,2020-09-21 10:11,410.00,-28
1600675951,2020-09-21 10:12,413.00,-29
1600676011,2020-09-21 10:13,411.00,-29
1600676071,2020-09-21 10:14,413.00,-28
1600676131,2020-09-21 10:15,416.00,-29
1600676192,2020-09-21 10:16,417.00,-27